Regional Weather Roundup
Issued by NWS

Home | Current Version | Previous Version | Text Only | Print | Product List | Glossary On
Versions: 1 2 3 4 5 6 7 8 9 10 11 12 13 14 15 16 17 18 19 20 21 22 23 24 25 26 27 28 29 30 31 32 33 34 35 36 37 38 39 40 41 42 43 44 45 46 47 48 49 50
000
ASCA44 KEWX 032320
RWRMX

LATIN AMERICA AND CARIBBEAN REGIONAL WEATHER ROUNDUP
NATIONAL WEATHER SERVICE AUSTIN/SAN ANTONIO TX
600 PM CDT THU SEP 03 2015

NOTE: "FAIR" INDICATED FEW OR NO CLOUDS BELOW 12,000 FEET WITH NO
SIGNIFICANT WEATHER AND/OR OBSTRUCTIONS TO VISIBILITY.

BAJA CALIFORNIA

CITY           SKY/WX    TMP DP  RH WIND       PRES   REMARKS
LORETO           N/A    N/A N/A N/A MISG        N/A
LA PAZ         MOSUNNY   90  68  48 SW10      29.79F HX  93
MEXICALI       SUNNY    102  37  10 N3        29.66F HX  96
S.J. DEL CABO  PTSUNNY   86  70  58 NW18      29.78F HX  90
TIJUANA        SUNNY     73  54  49 W8        29.88F

NORTHWESTERN MEXICO

CITY           SKY/WX    TMP DP  RH WIND       PRES   REMARKS
CULIACAN       PTSUNNY   93  79  62 CALM      29.79F HX 110
DURANGO        PTSUNNY   86  37  17 E6        30.07F
GUAYMAS        CLOUDY    86  75  70 E9        29.75F HX  95
HERMOSILLO     CLOUDY    84  70  61 NE13      29.85F
CD. JUAREZ     CLOUDY    86  57  37 W12       29.93F
LOS MOCHIS     PTSUNNY   90  72  55 W15       29.77F HX  96
OBREGON        PTSUNNY   88  68  51 N10       29.79F HX  91

NORTHEASTERN MEXICO

CITY           SKY/WX    TMP DP  RH WIND       PRES   REMARKS
CHIHUAHUA      PTSUNNY   91  43  18 NE8       29.97F
MATAMOROS      PTSUNNY   91  75  59 SE8       29.83F HX 102
MONCLOVA         N/A    N/A N/A N/A MISG        N/A
MONTERREY      PTSUNNY   90  63  40 NE9       29.80S HX  90
NUEVO LAREDO   MOSUNNY  100  64  30 E9        29.78F HX 103
PIEDRAS NEGRAS MOSUNNY   99  68  36 SE9       29.80F HX 104
REYNOSA        MOSUNNY   88  68  51 E14       29.79S HX  91
SALTILLO       MOSUNNY   82  64  54 N7        30.01F
TORREON        PTSUNNY   95  46  18 CALM      29.92F HX  91
CD. VICTORIA   MOSUNNY   93  64  38 SE7       29.79F HX  95

WESTERN MEXICO

CITY           SKY/WX    TMP DP  RH WIND       PRES   REMARKS
AGUASCALIENTES MOSUNNY   75  52  43 W7        30.11F
COLIMA         PTSUNNY   77  73  88 W9        29.91
DEL BAJIO      PTSUNNY   75  59  57 NE5       30.13F
GUADALAJARA    PTSUNNY   82  54  36 CALM      30.02F
MANZANILLO     PTSUNNY   90  77  66 SW6       29.72F HX 102
MAZATLAN       MOSUNNY   88  77  70 SW17      29.75F HX 100
P. VALLARTA    CLOUDY    82  75  78 E8        29.79S
URUAPAN        RAIN      66  66 100 CALM      30.08F
ZACATECAS      MOSUNNY   81  39  22 CALM      30.14F

CENTRAL MEXICO

CITY           SKY/WX    TMP DP  RH WIND       PRES   REMARKS
CUERNAVACA     PTSUNNY   66  63  88 MISG      30.01S
MEXICO CITY    CLOUDY    61  55  82 W6        30.23R
MORELIA        PTSUNNY   79  59  50 SW6       30.08F
POZA RICA      PTSUNNY   86  77  74 E9        29.82F HX  97
PUEBLA         LGT RAIN  61  55  82 NW10      30.24S
QUERETARO      PTSUNNY   79  57  47 E6        30.14F
S. LUIS POTOSI PTSUNNY   77  52  41 SE8       30.09F
TAMPICO        MOSUNNY   88  75  66 E12       29.79F HX  97
TOLUCA         PTSUNNY   63  54  72 S7        30.27S

SOUTHERN MEXICO

CITY           SKY/WX    TMP DP  RH WIND       PRES   REMARKS
ACAPULCO       PTSUNNY   86  73  66 CALM      29.79S HX  93
B. DE HUATULCO PTSUNNY   82  73  74 SW9       29.88F
OAXACA         LGT RAIN  72  59  64 N10       30.08R
P. ESCONDIDO   PTSUNNY   86  75  70 SW9       29.91R HX  95
VERACRUZ       MOSUNNY   88  75  66 NE7       29.78F HX  97
ZIHUATANEJO    PTSUNNY   86  79  79 E5        29.80S HX  99

YUCATAN PENINSULA

CITY           SKY/WX    TMP DP  RH WIND       PRES   REMARKS
CAMPECHE       MOSUNNY   95  75  52 E12       29.77F HX 107
CANCUN         MOSUNNY   86  79  79 E7        29.90S HX  99
CHETUMAL       PTSUNNY   88  77  70 E12       29.85F HX 100
CD. DEL CARMEN MOSUNNY   91  79  66 N8        29.78F HX 107
COZUMEL        MOSUNNY   84  77  79 SE7       29.90S HX  94
MERIDA         PTSUNNY   95  72  46 E6        29.83F THUNDER HX 103
MINATITLAN     MOSUNNY   86  72  62 N12G23    29.73F HX  92
TAPACHULA      PTSUNNY   84  75  74 N9        29.83S HX  92
TUX. GUTIERREZ PTSUNNY   84  68  58 N9        29.82F
VILLAHERMOSA   MOSUNNY   95  73  49 NE13      29.77F HX 105

CENTRAL AMERICA

CITY           SKY/WX    TMP DP  RH WIND       PRES   REMARKS
BELIZE CITY    MOSUNNY   86  79  79 E8        29.83F HX  99
MANAGUA        PTCLDY    79  70  73 E12       29.80F

CARIBBEAN

CITY           SKY/WX    TMP DP  RH WIND       PRES   REMARKS
ARUBA          PTCLDY    84  77  79 E21G32    29.80R HX  94
CURACAO        PTCLDY    86  77  74 E14       29.86S HX  97
KINGSTON       PTCLDY    86  75  70 SE16      29.89R HX  95
SAN JUAN       PTCLDY    82  72  69 CALM      29.95S
SANTO DOMINGO  PTCLDY    82  75  78 S7        29.92S
ST. CROIX      PTCLDY    82  73  74 E8        29.96R
ST. KITTS      PTCLDY    82  73  74 N7        29.94S
ST. MAARTEN    PTCLDY    84  75  74 CALM      29.94S HX  92
ST. THOMAS     CLEAR     86  75  70 SE5       29.95R HX  95

$$



USA.gov is the U.S. government's official web portal to all federal, state and local government web resources and services.